1282608030168,0.529544
1282608090168,0.534559
1282608150168,0.529595
1282608210168,0.537015
1282608270168,0.535374
1282608330168,0.529006
1282608390168,0.538303
1282608450168,0.535436
1282608510168,0.529528
1282608570168,0.530429
1282608630168,0.534390
1282608690168,0.532240
1282608750168,0.533749
1282608810168,0.536111
1282608870168,0.532282
1282608930168,0.529511
1282608990168,0.529678
1282609050168,0.537231
1282609110168,0.529817
1282609170168,0.533322
1282609230168,0.532626
1282609290168,0.538963
1282609350168,0.532343
1282609410168,0.537594
1282609470168,0.530868
1282609530168,0.531916
1282609590168,0.533712
1282609650168,0.535482
1282609710168,0.534377
1282609770168,0.523402
1282609830168,0.531826
1282609890168,0.535930
1282609950168,0.534389
1282610010168,0.533113
1282610070168,0.532600
1282610130168,0.524688
1282610190168,0.530435
1282610250168,0.529910
1282610310168,0.531255
1282610370168,0.535274
1282610430168,0.527958
1282610490168,0.534310
1282610550168,0.532427
1282610610168,0.537204
1282610670168,0.529501
1282610730168,0.529581
1282610790168,0.532495
1282610850168,0.538378
1282610910168,0.525479
1282610970168,0.528494
1282611030168,0.536784
1282611090168,0.529753
1282611150168,0.532522
1282611210168,0.530039
1282611270168,0.534106
1282611330168,0.527657
1282611390168,0.532913
1282611450168,0.536161
1282611510168,0.536078
1282611570168,0.539809
1282611630178,0.535050
1282611690178,0.532106
1282611750178,0.524765
1282611810178,0.529417
1282611870178,0.537222
1282611930178,0.533203
1282611990178,0.530367
1282612050178,0.525873
1282612110178,0.533417
1282612170178,0.528720
1282612230178,0.531072
1282612290178,0.528168
1282612350178,0.529581
1282612410178,0.532037
1282612470178,0.529101
1282612530178,0.530369
1282612590178,0.538698
1282612650178,0.529282
1282612710178,0.534811
1282612770178,0.530864
1282612830178,0.532826
1282612890178,0.533338
1282612950178,0.522621
1282613010178,0.532805
1282613070178,0.532095
1282613130178,0.528381
1282613190178,0.533027
1282613250178,0.529754
1282613310178,0.531003
1282613370178,0.528349
1282613430178,0.532864
1282613490178,0.531587
1282613550178,0.533087
1282613610178,0.530333
1282613670178,0.532222
1282613730178,0.532431
1282613790178,0.532616
1282613850178,0.531019
1282613910178,0.528858
1282613970178,0.535682
1282614030178,0.532905
1282614090178,0.534130
1282614150178,0.526780
1282614210178,0.541096
1282614270178,0.535861
1282614330178,0.535672
1282614390178,0.531768
1282614450178,0.527797
1282614510178,0.530245
1282614570178,0.529107
1282614630178,0.531908
1282614690178,0.532348
1282614750178,0.531537
1282614810178,0.530039
1282614870178,0.530813
1282614930178,0.531443
1282614990178,0.529994
1282615050178,0.538641
1282615110178,0.528939
1282615170178,0.529523
1282615230187,0.531910
1282615290187,0.531003
1282615350187,0.536207
1282615410187,0.531569
1282615470187,0.530221
1282615530187,0.524284
1282615590187,0.532994
1282615650187,0.533224
1282615710187,0.529624
1282615770187,0.530714
1282615830187,0.527778
1282615890187,0.532683
1282615950187,0.529086
1282616010187,0.532362
1282616070187,0.535729
1282616130187,0.530026
1282616190187,0.522747
1282616250187,0.531471
1282616310187,0.529625
1282616370187,0.531075
1282616430187,0.532058
1282616490187,0.531085
1282616550187,0.531180
1282616610187,0.529653
1282616670187,0.533284
1282616730187,0.530366
1282616790187,0.529155
1282616850187,0.529462
1282616910187,0.528022
1282616970187,0.532571
1282617030187,0.525778
1282617090187,0.532837
1282617150187,0.525455
1282617210187,0.531404
1282617270187,0.532581
1282617330187,0.533002
1282617390187,0.530543
1282617450187,0.530620
1282617510187,0.529348
1282617570187,0.530653
1282617630187,0.527032
1282617690187,0.526611
1282617750187,0.530118
1282617810187,0.532028
1282617870187,0.531874
1282617930187,0.531494
1282617990187,0.524728
1282618050187,0.528443
1282618110187,0.533715
1282618170187,0.527819
1282618230187,0.532883
1282618290187,0.532633
1282618350187,0.527476
1282618410187,0.534921
1282618470187,0.531030
1282618530187,0.530700
1282618590187,0.531170
1282618650187,0.533471
1282618710187,0.530686
1282618770187,0.535008
1282618830196,0.526847
1282618890196,0.527085
1282618950196,0.528780
1282619010196,0.527021
1282619070196,0.530582
1282619130196,0.533577
1282619190196,0.526552
1282619250196,0.524484
1282619310196,0.520960
1282619370196,0.536108
1282619430196,0.526767
1282619490196,0.524748
1282620090196,0.531749
1282620150196,0.531318
1282620210196,0.527057
1282620270196,0.529744
1282620330196,0.528919
1282620390196,0.533800
1282620450196,0.530135
1282620510196,0.532082
1282620570196,0.528523
1282620630196,0.529326
1282620690196,0.524851
1282620750196,0.534164
1282620810196,0.530338
1282620870196,0.532208
1282620930196,0.526250
1282620990196,0.536270
1282621050196,0.526938
1282621110196,0.534719
1282621170196,0.526826
1282621230196,0.527937
1282621290196,0.526830
1282621350196,0.524677
1282621410196,0.528783
1282621470196,0.525964
1282621530196,0.531501
1282621590196,0.529357
1282621650196,0.526692
1282621710196,0.526185
1282621770196,0.534951
1282621830196,0.524412
1282621890196,0.536002
1282621950196,0.526357
1282622010196,0.528674
1282622070196,0.527188
1282622130196,0.525502
1282622190196,0.525964
1282622250196,0.528227
1282622310196,0.530389
1282622370196,0.519759
1282622430205,0.527296
1282622490205,0.529689
1282622550205,0.528764
1282622610205,0.528960
1282622670205,0.525825
1282622730205,0.529996
1282622790205,0.530245
1282622850205,0.525929
1282622910205,0.526744
1282622970205,0.536391
1282623030205,0.521968
1282623090205,0.530159
1282623150205,0.530797
1282623210205,0.523233
1282623270205,0.528667
1282623330205,0.531679
1282623390205,0.529277
1282623450205,0.525828
1282623510205,0.525986
1282623570205,0.525120
1282623630205,0.529961
1282623690205,0.525784
1282623750205,0.527896
1282623810205,0.528149
1282623870205,0.525231
1282623930205,0.525036
1282623990205,0.535088
1282624050205,0.525189
1282624110205,0.524199
1282624170205,0.530735
1282624230205,0.528654
1282624290205,0.522400
1282624350205,0.528885
1282624410205,0.527211
1282624470205,0.525724
1282624530205,0.527357
1282624590205,0.523399
1282624650205,0.521766
1282624710205,0.526352
1282624770205,0.526257
1282624830205,0.529483
1282624890205,0.520223
1282624950205,0.528152
1282625010205,0.530456
1282625070205,0.526240
1282625130205,0.526528
1282625190205,0.526376
1282625250205,0.527518
1282625310205,0.531802
1282625370205,0.532013
1282625430205,0.518753
1282625490205,0.526502
1282625550205,0.527712
1282625610205,0.530903
1282625670205,0.526257
1282625730205,0.528772
1282625790205,0.523087
1282625850205,0.526947
1282625910205,0.524006
1282625970205,0.522659
1282626030213,0.529016
1282626090213,0.524289
1282626150213,0.523807
1282626210213,0.531004
1282626270213,0.525716
1282626330213,0.523842
1282626390213,0.522545
1282626450213,0.531107
1282626510213,0.532358
1282626570213,0.528003
1282626630213,0.528175
1282626690213,0.527652
1282626750213,0.524668
1282626810213,0.523725
1282626870213,0.528121
1282626930213,0.525985
1282626990213,0.522842
1282627050213,0.526315
1282627110213,0.524827
1282627170213,0.522772
1282627230213,0.525603
1282627290213,0.529051
1282627350213,0.527677
1282627410213,0.524004
1282627470213,0.527932
1282627530213,0.527270
1282627590213,0.531106
1282627650213,0.521511
1282627710213,0.519554
1282627770213,0.524973
1282627830213,0.523811
1282627890213,0.521128
1282627950213,0.525793
1282628010213,0.522839
1282628070213,0.526014
1282628130213,0.522774
1282628190213,0.524106
1282628250213,0.525732
1282628310213,0.521217
1282628370213,0.521325
1282628430213,0.528390
1282628490213,0.526207
1282628550213,0.521705
1282628610213,0.523771
1282628670213,0.528299
1282628730213,0.521482
1282628790213,0.522588
1282628850213,0.522299
1282628910213,0.522407
1282628970213,0.522271
1282629030213,0.521494
1282629090213,0.524377
1282629150213,0.525602
1282629210213,0.526367
1282629270213,0.524785
1282629330213,0.519868
1282629390213,0.521335
1282629450213,0.526734
1282629510213,0.524016
1282629570213,0.522888
1282629630222,0.521427
1282629690222,0.522316
1282629750222,0.529878
1282629810222,0.520785
1282629870222,0.527469
1282629930222,0.527670
1282629990222,0.527404
1282630050222,0.529792
1282630110222,0.517674
1282630170222,0.522939
1282630230222,0.522505
1282630290222,0.523038
1282630350222,0.522242
1282630410222,0.530525
1282630470222,0.520374
1282630530222,0.526820
1282630590222,0.517406
1282630650222,0.519257
1282630710222,0.519882
1282630770222,0.520837
1282630830222,0.534419
1282630890222,0.523027
1282630950222,0.519678
1282631010222,0.523594
1282631070222,0.525742
1282631130222,0.526947
1282631190222,0.522660
1282631250222,0.528208
1282631310222,0.527582
1282631370222,0.520787
1282631430222,0.528586
1282631490222,0.522628
1282631550222,0.525580
1282631610222,0.525805
1282631670222,0.522675
1282631730222,0.526186
1282631790222,0.524754
1282631850222,0.522251
1282631910222,0.521277
1282631970222,0.523738
1282632030222,0.523788
1282632090222,0.525177
1282632150222,0.522836
1282632210222,0.528407
1282632270222,0.519348
1282632330222,0.521794
1282632390222,0.523366
1282632450222,0.526815
1282632510222,0.518811
1282632570222,0.526340
1282632630222,0.520257
1282632690222,0.522108
1282632750222,0.523600
1282632810222,0.524192
1282632870222,0.527357
1282632930222,0.520818
1282632990222,0.521596
1282633050222,0.527525
1282633110222,0.524046
1282633170222,0.521536
1282633230231,0.525252
1282633290231,0.529777
1282633350231,0.521616
1282633410231,0.518175
1282633470231,0.526481
1282633530231,0.517100
1282633590231,0.516647
1282633650231,0.519631
1282633710231,0.520794
1282633770231,0.520326
1282633830231,0.518459
1282633890231,0.523086
1282633950231,0.521521
1282634010231,0.519803
1282634070231,0.522245
1282634130231,0.527163
1282634190231,0.526300
1282634250231,0.520347
1282634310231,0.518607
1282634370231,0.525845
1282634430231,0.524983
1282634490231,0.525946
1282634550231,0.525962
1282634610231,0.516598
1282634670231,0.523652
1282634730231,0.523872
1282634790231,0.522323
1282634850231,0.528061
1282634910231,0.520419
1282634970231,0.521174
1282635030231,0.518949
1282635090231,0.525327
1282635150231,0.520990
1282635210231,0.524741
1282635270231,0.521235
1282635330231,0.526903
1282635390231,0.519900
1282635450231,0.519378
1282635510231,0.523818
1282635570231,0.521378
1282635630231,0.524312
1282635690231,0.522480
1282635750231,0.527329
1282635810231,0.524061
1282635870231,0.524375
1282635930231,0.522819
1282635990231,0.521502
1282636050231,0.525365
1282636110231,0.523965
1282636170231,0.524889
1282636230231,0.522909
1282636290231,0.526358
1282636350231,0.522733
1282636410231,0.520034
1282636470231,0.525270
1282636530231,0.524240
1282636590231,0.520391
1282636650231,0.517837
1282636710231,0.521715
1282636770231,0.519324
1282636830240,0.525761
1282636890240,0.525205
1282636950240,0.520259
1282637010240,0.519781
1282637070240,0.521700
1282637130240,0.521010
1282637190240,0.525277
1282637250240,0.526596
1282637310240,0.522891
1282637370240,0.522016
1282637430240,0.526710
1282637490240,0.517957
1282637550240,0.526400
1282637610240,0.520807
1282637670240,0.523263
1282637730240,0.521155
1282637790240,0.513413
1282637850240,0.523128
1282637910240,0.523701
1282637970240,0.520263
1282638030240,0.526473
1282638090240,0.529584
1282638150240,0.524238
1282638210240,0.519980
1282638270240,0.525502
1282638330240,0.520290
1282638390240,0.524979
1282638450240,0.517817
1282638510240,0.525259
1282638570240,0.520449
1282638630240,0.521887
1282638690240,0.519618
1282638750240,0.525326
1282638810240,0.525125
1282638870240,0.521049
1282638930240,0.522857
1282638990240,0.516949
1282639050240,0.516883
1282639110240,0.518528
1282639170240,0.523404
1282639230240,0.523852
1282639290240,0.522520
1282639350240,0.526084
1282639410240,0.525242
1282639470240,0.519084
1282639530240,0.523209
1282639590240,0.523180
1282639650240,0.514337
1282639710240,0.516807
1282639770240,0.520827
1282639830240,0.527246
1282639890240,0.516647
1282639950240,0.524558
1282640010240,0.519567
1282640070240,0.522250
1282640130240,0.523018
1282640190240,0.522143
1282640250240,0.524463
1282640310240,0.520449
1282640370240,0.522824
1282640430250,0.524636
1282640490250,0.518979
1282640550250,0.524283
1282640610250,0.527027
1282640670250,0.524184
1282640730250,0.518290
1282640790250,0.523525
1282640850250,0.519578
1282640910250,0.523390
1282640970250,0.524327
1282641030250,0.520938
1282641090250,0.522204
1282641150250,0.523563
1282641210250,0.520561
1282641270250,0.531116
1282641330250,0.524764
1282641390250,0.525129
1282641450250,0.527332
1282641510250,0.519751
1282641570250,0.523081
1282641630250,0.516925
1282641690250,0.523513
1282641750250,0.518433
1282641810250,0.522563
1282641870250,0.519941
1282641930250,0.530318
1282641990250,0.524752
1282642050250,0.521280
1282642110250,0.520504
1282642170250,0.521542
1282642230250,0.518630
1282642290250,0.518049
1282642350250,0.524366
1282642410250,0.523516
1282642470250,0.525434
1282642530250,0.523570
1282642590250,0.524111
1282642650250,0.523835
1282642710250,0.516919
1282642770250,0.521768
1282642830250,0.528178
1282642890250,0.523489
1282642950250,0.522837
1282643010250,0.515985
1282643070250,0.524719
1282643130250,0.524486
1282643190250,0.524082
1282643250250,0.516972
1282643310250,0.520657
1282643370250,0.526086
1282643430250,0.522725
1282643490250,0.527002
1282643550250,0.525804
1282643610250,0.522725
1282643670250,0.521121
1282643730250,0.518517
1282643790250,0.520661
1282643850250,0.529592
1282643910250,0.528203
1282643970250,0.522788
1282644030259,0.526215
1282644090259,0.517528
1282644150259,0.521401
1282644210259,0.520168
1282644270259,0.518575
1282644330259,0.527302
1282644390259,0.518264
1282644450259,0.519859
1282644510259,0.525024
1282644570259,0.521543
1282644630259,0.521024
1282644690259,0.517525
1282644750259,0.529588
1282644810259,0.524443
1282644870259,0.520369
1282644930259,0.521674
1282644990259,0.517492
1282645050259,0.528376
1282645110259,0.523391
1282645170259,0.524467
1282645230259,0.520802
1282645290259,0.518991
1282645350259,0.515878
1282645410259,0.517631
1282645470259,0.519382
1282645530259,0.516782
1282645590259,0.522079
1282645650259,0.519228
1282645710259,0.520744
1282645770259,0.517966
1282645830259,0.515953
1282645890259,0.519056
1282645950259,0.517522
1282646010259,0.522849
1282646070259,0.522541
1282646130259,0.520702
1282646190259,0.522339
1282646250259,0.516656
1282646310259,0.522233
1282646370259,0.525273
1282646430259,0.523348
1282646490259,0.523313
1282646550259,0.519371
1282646610259,0.514550
1282646670259,0.520565
1282646730259,0.524393
1282646790259,0.526485
1282646850259,0.524736
1282646910259,0.520241
1282646970259,0.521926
1282647030259,0.526889
1282647090259,0.518732
1282647150259,0.525013
1282647210259,0.517404
1282647270259,0.518831
1282647330259,0.520362
1282647390259,0.520608
1282647450259,0.524335
1282647510259,0.521252
1282647570259,0.522109
1282647630268,0.520433
1282647690268,0.522213
1282647750268,0.525051
1282647810268,0.524129
1282647870268,0.523287
1282647930268,0.522673
1282647990268,0.519988
1282648050268,0.521584
1282648110268,0.529364
1282648170268,0.520885
1282648230268,0.520284
1282648290268,0.524563
1282648350268,0.516180
1282648410268,0.520948
1282648470268,0.520300
1282648530268,0.522918
1282648590268,0.520475
1282648650268,0.520061
1282648710268,0.520322
1282648770268,0.515293
1282648830268,0.523846
1282648890268,0.520997
1282648950268,0.523642
1282649010268,0.521876
1282649070268,0.524627
1282649130268,0.519195
1282649190268,0.523782
1282649250268,0.527008
1282649310268,0.524682
1282649370268,0.524967
1282649430268,0.525014
1282649490268,0.520703
1282649550268,0.517687
1282649610268,0.518358
1282649670268,0.521569
1282649730268,0.520547
1282649790268,0.521944
1282649850268,0.521327
1282649910268,0.521115
1282649970268,0.519134
1282650030268,0.522420
1282650090268,0.521841
1282650150268,0.521400
1282650210268,0.528313
1282650270268,0.518152
1282650330268,0.523285
1282650390268,0.519198
1282650450268,0.525497
1282650510268,0.517442
1282650570268,0.520917
1282650630268,0.529565
1282650690268,0.522222
1282650750268,0.520248
1282650810268,0.520168
1282650870268,0.525010
1282650930268,0.526623
1282650990268,0.523192
1282651050268,0.514732
1282651110268,0.517561
1282651170268,0.519805
1282651230278,0.521118
1282651290278,0.519014
1282651350278,0.526096
1282651410278,0.524149
1282651470278,0.523475
1282651530278,0.522049
1282651590278,0.523684
1282651650278,0.520268
1282651710278,0.525444
1282651770278,0.522693
1282651830278,0.527631
1282651890278,0.521526
1282651950278,0.522834
1282652010278,0.519262
1282652070278,0.524366
1282652130278,0.525332
1282652190278,0.522955
1282652250278,0.517977
1282652310278,0.520469
1282652370278,0.522295
1282652430278,0.515330
1282652490278,0.519796
1282652550278,0.515907
1282652610278,0.522121
1282652670278,0.518524
1282652730278,0.520953
1282652790278,0.522511
1282652850278,0.524357
1282652910278,0.517987
1282652970278,0.518973
1282653030278,0.523906
1282653090278,0.524278
1282653150278,0.521791
1282653210278,0.520578
1282653270278,0.518375
1282653330278,0.523768
1282653390278,0.523753
1282653450278,0.517128
1282653510278,0.520881
1282653570278,0.525256
1282653630278,0.520902
1282653690278,0.523428
1282653750278,0.519624
1282653810278,0.520244
1282653870278,0.521612
1282653930278,0.525256
1282653990278,0.521729
1282654050278,0.521639
1282654110278,0.519467
1282654170278,0.524078
1282654230278,0.513793
1282654290278,0.521623
1282654350278,0.521041
1282654410278,0.517485
1282654470278,0.522783
1282654530278,0.518385
1282654590278,0.517412
1282654650278,0.521102
1282654710278,0.516045
1282654770278,0.525446
1282654830287,0.518149
1282654890287,0.518646
1282654950287,0.521001
1282655010287,0.521748
1282655070287,0.521609
1282655130287,0.523669
1282655190287,0.523933
1282655250287,0.523239
1282655310287,0.520387
1282655370287,0.524226
1282655430287,0.518395
1282655490287,0.517358
1282655550287,0.521989
1282655610287,0.523100
1282655670287,0.518803
1282655730287,0.515528
1282655790287,0.525170
1282655850287,0.523230
1282655910287,0.518100
1282655970287,0.524803
1282656030287,0.517911
1282656090287,0.522952
1282656150287,0.519621
1282656210287,0.513209
1282656270287,0.517835
1282656330287,0.525442
1282656390287,0.518898
1282656450287,0.520550
1282656510287,0.523401
1282656570287,0.517334
1282656630287,0.520642
1282656690287,0.524729
1282656750287,0.513905
1282656810287,0.518745
1282656870287,0.523989
1282656930287,0.521276
1282656990287,0.517169
1282657050287,0.524685
1282657110287,0.520969
1282657170287,0.519620
1282657230287,0.517415
1282657290287,0.520280
1282657350287,0.520877
1282657410287,0.519162
1282657470287,0.524356
1282657530287,0.517274
1282657590287,0.521317
1282657650287,0.522421
1282657710287,0.521739
1282657770287,0.519079
1282657830287,0.519977
1282657890287,0.525248
1282657950287,0.517110
1282658010287,0.517319
1282658070287,0.516784
1282658130287,0.516722
1282658190287,0.518995
1282658250287,0.512247
1282658310287,0.519308
1282658370287,0.515533
1282658430316,0.518485
1282658490316,0.521995
1282658550316,0.518219
1282658610316,0.522360
1282658670316,0.519177
1282658730316,0.520402
1282658790316,0.516493
1282658850316,0.521646
1282658910316,0.519171
1282658970316,0.522609
1282659030316,0.521105
1282659090316,0.524622
1282659150316,0.519434
1282659210316,0.520842
1282659270316,0.523409
1282659330316,0.522612
1282659390316,0.520870
1282659450316,0.518666
1282659510316,0.519482
1282659570316,0.521648
1282659630316,0.520173
1282659690316,0.520516
1282659750316,0.524648
1282659810316,0.525076
1282659870316,0.521480
1282659930316,0.514157
1282659990316,0.518719
1282660050316,0.520024
1282660110316,0.521250
1282660170316,0.518758
1282660230316,0.515593
1282660290316,0.523427
1282660350316,0.521253
1282660410316,0.522257
1282660470316,0.516298
1282660530316,0.520509
1282660590316,0.522366
1282660650316,0.516635
1282660710316,0.521091
1282660770316,0.518671
1282660830316,0.518578
1282660890316,0.519584
1282660950316,0.510917
1282661010316,0.521397
1282661070316,0.518421
1282661130316,0.523680
1282661190316,0.520494
1282661250316,0.519585
1282661310316,0.523906
1282661370316,0.520007
1282661430316,0.525742
1282661490316,0.516330
1282661550316,0.520392
1282661610316,0.520801
1282661670316,0.517923
1282661730316,0.520649
1282661790316,0.520660
1282661850316,0.516983
1282661910316,0.520233
1282661970316,0.524029
1282662030326,0.511690
1282662090326,0.523566
1282662150326,0.521761
1282662210326,0.518844
1282662270326,0.521155
1282662330326,0.517519
1282662390326,0.520746
1282662450326,0.514267
1282662510326,0.525634
1282662570326,0.525767
1282662630326,0.520211
1282662690326,0.516233
1282662750326,0.517541
1282662810326,0.517226
1282662870326,0.517897
1282662930326,0.517167
1282662990326,0.519179
1282663050326,0.515527
1282663110326,0.518761
1282663170326,0.518825
1282663230326,0.518381
1282663290326,0.520258
1282663350326,0.522206
1282663410326,0.526185
1282663470326,0.519607
1282663530326,0.521375
1282663590326,0.520622
1282663650326,0.516315
1282663710326,0.518693
1282663770326,0.520584
1282663830326,0.520971
1282663890326,0.517584
1282663950326,0.523468
1282664010326,0.522147
1282664070326,0.521898
1282664130326,0.520234
1282664190326,0.519611
1282664250326,0.519861
1282664310326,0.521217
1282664370326,0.518914
1282664430326,0.519452
1282664490326,0.519124
1282664550326,0.521881
1282664610326,0.520882
1282664670326,0.523115
1282664730326,0.515404
1282664790326,0.522083
1282664850326,0.519929
1282664910326,0.520555
1282664970326,0.517790
1282665030326,0.513204
1282665090326,0.520575
1282665150326,0.527524
1282665210326,0.518963
1282665270326,0.517545
1282665330326,0.515337
1282665390326,0.518397
1282665450326,0.525185
1282665510326,0.519641
1282665570326,0.516554
1282665630337,0.521220
1282665690337,0.524392
1282665750337,0.517831
1282665810337,0.517563
1282665870337,0.518254
1282665930337,0.516099
1282665990337,0.524187
1282666050337,0.523669
1282666110337,0.520386
1282666170337,0.520009
1282666230337,0.520863
1282666290337,0.522467
1282666350337,0.512894
1282666410337,0.516517
1282666470337,0.522282
1282666530337,0.519387
1282666590337,0.519591
1282666650337,0.519128
1282666710337,0.515357
1282666770337,0.518964
1282666830337,0.517816
1282666890337,0.516048
1282666950337,0.522421
1282667010337,0.517505
1282667070337,0.521759
1282667130337,0.520334
1282667190337,0.517317
1282667250337,0.519974
1282667310337,0.520276
1282667370337,0.516607
1282667430337,0.517802
1282667490337,0.520989
1282667550337,0.520487
1282667610337,0.519308
1282667670337,0.520237
1282667730337,0.519925
1282667790337,0.513783
1282667850337,0.522942
1282667910337,0.518670
1282667970337,0.523149
1282668030337,0.518952
1282668090337,0.521145
1282668150337,0.523038
1282668210337,0.523904
1282668270337,0.512115
1282668330337,0.523522
1282668390337,0.519349
1282668450337,0.514251
1282668510337,0.516462
1282668570337,0.515975
1282668630337,0.516558
1282668690337,0.519437
1282668750337,0.515361
1282668810337,0.519872
1282668870337,0.520474
1282668930337,0.513990
1282668990337,0.524981
1282669050337,0.517067
1282669110337,0.514268
1282669170337,0.512244
1282669230347,0.518565
1282669290347,0.513114
1282669350348,0.517081
1282669410348,0.516413
1282669470348,0.513684
1282669530348,0.519994
1282669590348,0.516303
1282669650348,0.517955
1282669710348,0.512999
1282669770348,0.515942
1282669830348,0.518804
1282669890348,0.518804
1282669950348,0.515111
1282670010348,0.518819
1282670070348,0.517700
1282670130348,0.519746
1282670190348,0.515414
1282670250348,0.522137
1282670310348,0.513485
1282670370348,0.515223
1282670430347,0.520458
1282670490347,0.517618
1282670550347,0.515905
1282670610347,0.517038
1282670670348,0.518144
1282670730348,0.516083
1282670790348,0.516152
1282670850348,0.519759
1282670910348,0.519864
1282670970348,0.517927
1282671030348,0.523310
1282671090348,0.520578